Weather History for KARA - October, 2013

Change the Weather History Date:

Saturday, October 12, 2013

  Actual Average Record
Temperature  
Mean Temperature 79 °F 71 °F  
Max Temperature 89 °F 82 °F 89 °F (1997)
Min Temperature 69 °F 60 °F 41 °F (1952)
Degree Days  
Heating Degree Days 0 1  
Month to date heating degree days 0 1  
Since 1 July heating degree days 0 2  
Cooling Degree Days 14 7  
Month to date cooling degree days 140 98  
Year to date cooling degree days 3018 2654  
Growing Degree Days 29 (Base 50)    
Moisture  
Dew Point 70 °F    
Average Humidity 75    
Maximum Humidity 93    
Minimum Humidity 56    
Precipitation  
Precipitation 1.27 in 0.18 in 1.90 in (2009)
Month to date precipitation 1.84 2.37  
Year to date precipitation 58.93 47.85  
Sea Level Pressure  
Sea Level Pressure 30.05 in    
Wind  
Wind Speed 4 mph (SE)    
Max Wind Speed 24 mph    
Max Gust Speed 29 mph    
Visibility 6 miles    
Events Fog , Rain , Thunderstorm    
T = Trace of Precipitation, MM = Missing Value Source: NWS Daily Summary

Daily Weather History Graph

Daily Weather History Graph

Search for Another Location

Airport or City:

Trip Planner

Search our weather history database for the weather conditions in past years. The results will help you decide how hot, cold, wet, or windy it might be!

Date:

Astronomy

Oct. 12, 2013 Rise Set
Actual Time 7:07 AM CDT 6:39 PM CDT
Civil Twilight 6:43 AM CDT 7:03 PM CDT
Nautical Twilight 6:15 AM CDT 7:31 PM CDT
Astronomical Twilight 5:48 AM CDT 7:59 PM CDT
Moon 2:25 PM CDT (10/12) 12:38 AM CDT (10/12)
Length of Visible Light 12h 20m
Length of Day
11h 32m
First Quarter, 59% of the Moon is Illuminated
Oct 12
First Quarter
Oct 18
Full
Oct 26
Last Quarter
Nov 3
New
Nov 9
First Quarter

Hourly Weather History & Observations

Time (CDT) Temp. Heat Index Dew Point Humidity Pressure Visibility Wind Dir Wind Speed Gust Speed Precip Events Conditions
12:53 AM 72.0 °F - 68.0 °F 87% 29.99 in 7.0 mi ESE 3.5 mph - N/A   Clear
1:53 AM 71.1 °F - 66.9 °F 87% 29.99 in 6.0 mi ESE 4.6 mph - N/A   Clear
2:53 AM 71.1 °F - 68.0 °F 90% 29.98 in 10.0 mi SSE 3.5 mph - N/A   Clear
3:53 AM 71.1 °F - 68.0 °F 90% 29.99 in 7.0 mi Calm Calm - N/A   Clear
4:26 AM 69.8 °F - 66.2 °F 88% 29.98 in 1.8 mi Calm Calm - N/A   Clear
4:36 AM 69.8 °F - 66.2 °F 88% 29.98 in 0.8 mi Calm Calm - N/A   Clear
4:53 AM 70.0 °F - 66.9 °F 90% 29.99 in 0.5 mi Calm Calm - N/A Fog Fog
5:04 AM 71.6 °F - 66.2 °F 83% 29.99 in 1.0 mi Calm Calm - N/A   Clear
5:14 AM 71.6 °F - 66.2 °F 83% 29.99 in 3.0 mi Calm Calm - N/A   Clear
5:29 AM 69.8 °F - 66.2 °F 88% 30.00 in 1.8 mi Calm Calm - N/A   Clear
5:37 AM 69.8 °F - 66.2 °F 88% 30.00 in 3.0 mi Calm Calm - N/A   Clear
5:53 AM 71.1 °F - 68.0 °F 90% 30.01 in 8.0 mi Calm Calm - N/A   Clear
6:53 AM 69.1 °F - 66.0 °F 90% 30.02 in 5.0 mi Calm Calm - N/A   Clear
7:53 AM 72.0 °F - 69.1 °F 91% 30.04 in 6.0 mi Calm Calm - N/A   Clear
8:53 AM 77.0 °F - 72.0 °F 84% 30.06 in 10.0 mi East 4.6 mph - N/A   Clear
9:53 AM 82.0 °F 87.9 °F 73.9 °F 76% 30.07 in 10.0 mi SE 3.5 mph - N/A   Clear
10:53 AM 84.0 °F 90.2 °F 73.0 °F 69% 30.06 in 10.0 mi SSW 3.5 mph - N/A   Partly Cloudy
11:53 AM 86.0 °F 91.5 °F 71.1 °F 61% 30.06 in 10.0 mi SW 4.6 mph - N/A   Partly Cloudy
12:53 PM 89.1 °F 95.0 °F 71.1 °F 55% 30.04 in 10.0 mi Calm Calm - N/A   Mostly Cloudy
1:53 PM 89.1 °F 96.0 °F 72.0 °F 57% 30.02 in 10.0 mi South 3.5 mph - N/A   Overcast
2:53 PM 82.0 °F 86.7 °F 72.0 °F 71% 30.01 in 10.0 mi SSW 9.2 mph - N/A   Overcast
3:53 PM 84.0 °F 90.2 °F 73.0 °F 69% 29.99 in 10.0 mi SW 6.9 mph - 0.00 in Rain Light Rain
4:53 PM 84.9 °F 91.4 °F 73.0 °F 67% 29.99 in 10.0 mi SSW 6.9 mph - 0.00 in   Scattered Clouds
5:53 PM 84.9 °F 91.4 °F 73.0 °F 67% 30.00 in 10.0 mi South 6.9 mph - N/A   Partly Cloudy
6:53 PM 82.0 °F 87.9 °F 73.9 °F 76% 30.03 in 10.0 mi South 4.6 mph - N/A   Mostly Cloudy
7:53 PM 81.0 °F 86.7 °F 75.0 °F 82% 30.04 in 10.0 mi SSE 5.8 mph - N/A   Mostly Cloudy
8:53 PM 80.1 °F 85.1 °F 75.0 °F 85% 30.07 in 10.0 mi SSE 5.8 mph - N/A   Overcast
9:23 PM 80.6 °F 86.2 °F 75.2 °F 84% 30.08 in 10.0 mi South 3.5 mph - 0.00 in Rain , Thunderstorm Light Rain
9:53 PM 80.1 °F 85.1 °F 75.0 °F 85% 30.09 in 10.0 mi NNE 4.6 mph - 0.00 in Rain , Thunderstorm Light Rain
10:00 PM 78.8 °F - 71.6 °F 78% 30.10 in 10.0 mi NNE 13.8 mph 20.7 mph 0.00 in Rain , Thunderstorm Light Rain
10:05 PM 75.2 °F - 69.8 °F 83% 30.10 in 10.0 mi NE 21.9 mph 26.5 mph 0.00 in Rain , Thunderstorm Light Rain
10:20 PM 73.4 °F - 69.8 °F 88% 30.10 in 3.0 mi NNE 21.9 mph 28.8 mph 0.09 in Rain Heavy Rain
10:31 PM 73.4 °F - 69.8 °F 88% 30.11 in 2.5 mi NNE 20.7 mph - 0.21 in Rain , Thunderstorm Heavy Rain
10:40 PM 73.4 °F - 69.8 °F 88% 30.12 in 1.0 mi NNE 13.8 mph - 0.58 in Rain , Thunderstorm Heavy Rain
10:48 PM 73.4 °F - 69.8 °F 88% 30.13 in 1.2 mi NNE 11.5 mph - 0.83 in Rain Heavy Rain
10:53 PM 73.0 °F - 70.0 °F 90% 30.13 in 1.5 mi NE 12.7 mph - 0.91 in Rain , Thunderstorm Heavy Rain
11:06 PM 71.6 °F - 69.8 °F 94% 30.13 in 1.8 mi WNW 3.5 mph - 0.21 in Rain Heavy Rain
11:13 PM 73.4 °F - 69.8 °F 88% 30.12 in 2.0 mi Calm Calm - 0.26 in Rain Heavy Rain
11:26 PM 73.4 °F - 69.8 °F 88% 30.12 in 4.0 mi NNW 3.5 mph - 0.31 in Rain Heavy Rain
11:53 PM 73.0 °F - 70.0 °F 90% 30.11 in 7.0 mi Calm Calm - 0.34 in Rain Rain